7 * 24
多渠道服务支持
STARLINK-11426是美国SpaceX公司星链星座的第二代互联网卫星,于2024年11月24日由猎鹰9号火箭发射入轨。作为星链Gen2批次成员,它配备增强型相控阵天线与激光星间链路,工作在近地轨道,可提供高速低延迟的全球宽带互联服务,支持住宅、移动等多场景接入,助力星链完成全球覆盖与容量扩展,目前已进入正常在轨工作状态。
美国
(US)
| 数据来源 | 国际轨道数据 |
| 星历时间: | 2026-09-11T14:19:41+0800 6小时前 查看轨道信息 |
| 半长轴: | 6737.748km |
| 偏心率: | 0.0001447 |
| 轨道倾角: | 53.157° |
| 近地点辐角 | 72.020° |
| 升交点赤经 | 236.179° |
| 平近点角 | 288.097° |
| 近地点: | 358.636km |
| 远地点: | 360.586km |
| 周期: | 91.734分钟 |
| 每日圈数: | 15.697505 |